| time (UTC) | temp C | wind direction | speed KPH | gust KPH | rain 1hr cm | rain 24hr cm | rain mn cm | humidity % | barometer mb |
| 20260506124539 | 10 | 200 | 0.0 | 0.0 | 0.00 | 0.00 | 0.00 | 89 | 1020.1 |
| 20260506123039 | 10 | 200 | 0.0 | 0.0 | 0.00 | 0.00 | 0.00 | 89 | 1020.1 |
| 20260506121540 | 10 | 200 | 0.0 | 0.0 | 0.00 | 0.00 | 0.00 | 89 | 1020.0 |
| 20260506120041 | 10 | 200 | 0.0 | 0.0 | 0.00 | 0.00 | 0.00 | 89 | 1020.0 |
| 20260506114541 | 10 | 200 | 0.0 | 0.0 | 0.00 | 0.00 | 0.00 | 89 | 1019.9 |
| 20260506113034 | 10 | 200 | 0.0 | 0.0 | 0.00 | 0.00 | 0.00 | 89 | 1019.8 |
| 20260506111535 | 10 | 200 | 0.0 | 0.0 | 0.00 | 0.00 | 0.00 | 89 | 1019.7 |
| 20260506110036 | 10 | 200 | 0.0 | 0.0 | 0.00 | 0.00 | 0.00 | 89 | 1019.6 |
| 20260506104605 | 10 | 200 | 0.0 | 0.0 | 0.00 | 0.00 | 0.00 | 89 | 1019.6 |
| 20260506103049 | 10 | 200 | 0.0 | 0.0 | 0.00 | 0.00 | 0.00 | 89 | 1019.5 |
| 20260506101559 | 10 | 200 | 0.0 | 0.0 | 0.00 | 0.00 | 0.00 | 89 | 1019.3 |
| 20260506094519 | 10 | 200 | 0.0 | 0.0 | 0.00 | 0.05 | 0.00 | 88 | 1019.1 |
| 20260506093015 | 10 | 200 | 0.0 | 0.0 | 0.00 | 0.05 | 0.00 | 88 | 1019.1 |
| 20260506091514 | 10 | 200 | 0.0 | 0.0 | 0.00 | 0.05 | 0.00 | 88 | 1019.3 |
| 20260506090008 | 10 | 200 | 0.0 | 0.0 | 0.00 | 0.05 | 0.00 | 88 | 1019.1 |
| 20260506084505 | 10 | 200 | 0.0 | 0.0 | 0.00 | 0.15 | 0.00 | 88 | 1019.3 |
| 20260506083100 | 9 | 200 | 0.0 | 0.0 | 0.00 | 0.15 | 0.00 | 88 | 1019.4 |
| 20260506081558 | 9 | 200 | 0.0 | 0.0 | 0.00 | 0.15 | 0.00 | 88 | 1019.2 |
| 20260506073058 | 9 | 226 | 0.0 | 0.0 | 0.00 | 0.15 | 0.00 | 88 | 1018.8 |
| 20260506071607 | 9 | 226 | 0.0 | 0.0 | 0.00 | 0.15 | 0.00 | 87 | 1018.8 |
| 20260506061546 | 10 | 226 | 0.0 | 0.0 | 0.00 | 0.33 | 0.15 | 87 | 1018.3 |
| 20260506044538 | 10 | 182 | 0.0 | 6.4 | 0.00 | 0.33 | 0.15 | 87 | 1017.7 |
| 20260506043035 | 10 | 199 | 1.6 | 4.8 | 0.00 | 0.33 | 0.15 | 87 | 1017.5 |
| 20260506041544 | 11 | 209 | 0.0 | 6.4 | 0.00 | 0.33 | 0.15 | 87 | 1017.3 |
| 20260506040031 | 11 | 247 | 0.0 | 6.4 | 0.00 | 0.33 | 0.15 | 86 | 1017.1 |
| 20260506034529 | 12 | 163 | 0.0 | 1.6 | 0.00 | 0.33 | 0.15 | 86 | 1017.1 |
| 20260506033030 | 12 | 201 | 0.0 | 4.8 | 0.00 | 0.33 | 0.15 | 84 | 1016.7 |
| 20260506031526 | 13 | 214 | 0.0 | 1.6 | 0.00 | 0.33 | 0.15 | 82 | 1016.4 |
| 20260506030025 | 14 | 148 | 0.0 | 3.2 | 0.00 | 0.33 | 0.15 | 79 | 1016.1 |
| 20260506024521 | 14 | 161 | 0.0 | 0.0 | 0.00 | 0.43 | 0.15 | 79 | 1016.1 |
| 20260506023022 | 14 | 319 | 0.0 | 12.9 | 0.00 | 0.43 | 0.15 | 77 | 1015.8 |
| 20260506021521 | 14 | 258 | 0.0 | 6.4 | 0.00 | 0.43 | 0.15 | 77 | 1015.9 |
| 20260506020023 | 14 | 248 | 0.0 | 6.4 | 0.00 | 0.43 | 0.15 | 78 | 1015.7 |
| 20260506014520 | 14 | 28 | 0.0 | 8.0 | 0.00 | 0.53 | 0.15 | 77 | 1015.6 |
| 20260506013026 | 15 | 173 | 1.6 | 9.7 | 0.00 | 0.53 | 0.15 | 76 | 1015.7 |
| 20260506011518 | 15 | 71 | 0.0 | 4.8 | 0.00 | 0.53 | 0.15 | 78 | 1015.5 |
| 20260506010024 | 15 | 331 | 0.0 | 8.0 | 0.00 | 0.53 | 0.15 | 77 | 1015.5 |
| 20260506004528 | 15 | 240 | 0.0 | 11.3 | 0.00 | 0.61 | 0.15 | 77 | 1015.6 |
| 20260506003018 | 16 | 185 | 0.0 | 4.8 | 0.00 | 0.61 | 0.15 | 76 | 1015.5 |
| 20260506001517 | 16 | 5 | 1.6 | 9.7 | 0.00 | 0.61 | 0.15 | 76 | 1015.4 |
| 20260506000020 | 16 | 202 | 1.6 | 9.7 | 0.00 | 0.61 | 0.15 | 75 | 1015.3 |
| 20260505234519 | 16 | 165 | 1.6 | 11.3 | 0.00 | 0.69 | 0.15 | 75 | 1015.3 |
| 20260505233016 | 16 | 202 | 0.0 | 14.5 | 0.00 | 0.69 | 0.15 | 74 | 1015.3 |
| 20260505231517 | 17 | 170 | 4.8 | 14.5 | 0.00 | 0.69 | 0.15 | 72 | 1015.4 |
| 20260505230016 | 17 | 355 | 1.6 | 12.9 | 0.00 | 0.69 | 0.15 | 74 | 1015.3 |
| 20260505224517 | 17 | 155 | 0.0 | 9.7 | 0.00 | 0.79 | 0.15 | 72 | 1015.3 |
| 20260505223013 | 17 | 289 | 1.6 | 9.7 | 0.00 | 0.79 | 0.15 | 73 | 1015.3 |
| 20260505221513 | 18 | 180 | 0.0 | 6.4 | 0.00 | 0.79 | 0.15 | 71 | 1015.4 |
| 20260505220024 | 18 | 262 | 0.0 | 14.5 | 0.00 | 0.79 | 0.15 | 72 | 1015.6 |
| 20260505214513 | 17 | 319 | 3.2 | 8.0 | 0.00 | 0.79 | 0.15 | 75 | 1015.6 |
| 20260505213005 | 17 | 234 | 0.0 | 6.4 | 0.00 | 0.79 | 0.15 | 77 | 1015.8 |
| 20260505211504 | 16 | 202 | 1.6 | 8.0 | 0.00 | 0.79 | 0.15 | 76 | 1015.9 |
| 20260505210006 | 16 | 178 | 0.0 | 8.0 | 0.00 | 0.79 | 0.15 | 77 | 1015.9 |
| 20260505204503 | 16 | 186 | 0.0 | 8.0 | 0.00 | 0.79 | 0.15 | 78 | 1016.0 |
| 20260505203002 | 16 | 178 | 0.0 | 6.4 | 0.00 | 0.79 | 0.15 | 76 | 1016.1 |
| 20260505201607 | 16 | 161 | 0.0 | 6.4 | 0.00 | 0.79 | 0.15 | 77 | 1016.1 |
| 20260505200100 | 16 | 333 | 0.0 | 9.7 | 0.00 | 0.79 | 0.15 | 76 | 1016.1 |
| 20260505194603 | 16 | 340 | 0.0 | 6.4 | 0.00 | 0.79 | 0.15 | 76 | 1016.1 |
| 20260505193055 | 16 | 31 | 0.0 | 6.4 | 0.00 | 0.79 | 0.15 | 78 | 1016.2 |
| 20260505191557 | 15 | 222 | 0.0 | 6.4 | 0.00 | 0.79 | 0.15 | 78 | 1016.2 |
| 20260505190110 | 15 | 167 | 0.0 | 6.4 | 0.00 | 0.79 | 0.15 | 78 | 1016.2 |
| 20260505184604 | 15 | 348 | 0.0 | 0.0 | 0.00 | 0.79 | 0.15 | 79 | 1016.2 |
| 20260505183053 | 15 | 181 | 0.0 | 8.0 | 0.00 | 0.79 | 0.15 | 79 | 1016.2 |
| 20260505181544 | 15 | 198 | 0.0 | 4.8 | 0.00 | 0.79 | 0.15 | 79 | 1016.1 |
| 20260505180042 | 14 | 197 | 0.0 | 6.4 | 0.00 | 0.79 | 0.15 | 80 | 1016.1 |
| 20260505174543 | 14 | 194 | 0.0 | 3.2 | 0.00 | 0.79 | 0.15 | 81 | 1015.9 |
| 20260505173042 | 14 | 171 | 0.0 | 4.8 | 0.00 | 0.79 | 0.15 | 83 | 1015.8 |
| 20260505171541 | 13 | 5 | 0.0 | 4.8 | 0.00 | 0.79 | 0.15 | 84 | 1015.7 |
| 20260505170036 | 13 | 128 | 0.0 | 6.4 | 0.00 | 0.79 | 0.15 | 85 | 1015.8 |
| 20260505164537 | 13 | 323 | 1.6 | 8.0 | 0.00 | 0.79 | 0.15 | 84 | 1015.8 |
| 20260505163031 | 11 | 339 | 4.8 | 12.9 | 0.00 | 0.79 | 0.15 | 85 | 1015.6 |
| 20260505161527 | 11 | 309 | 0.0 | 14.5 | 0.00 | 0.79 | 0.15 | 88 | 1015.5 |
| 20260505153028 | 12 | 272 | 0.0 | 0.0 | 0.00 | 0.79 | 0.15 | 94 | 1015.4 |
| 20260505151521 | 12 | 178 | 1.6 | 6.4 | 0.00 | 0.79 | 0.15 | 94 | 1015.3 |